Regional Weather Roundup
Issued by NWS

Home | Current Version | Previous Version | Graphics & Text | Print | Product List | Glossary On
Versions: 1 2 3 4 5 6 7 8 9 10 11 12 13 14 15 16 17 18 19 20 21 22 23 24 25 26 27 28 29 30 31 32 33 34 35 36 37 38 39 40 41 42 43 44 45 46 47 48 49 50
000
ASUS43 KIND 281259
RWRIN

WEATHER ROUNDUP FOR INDIANA
NATIONAL WEATHER SERVICE INDIANAPOLIS IN
800 AM EST WED JAN 28 2015

NOTE: "FAIR" INDICATES FEW OR NO CLOUDS BELOW 12,000 FEET WITH NO
SIGNIFICANT WEATHER AND/OR OBSTRUCTIONS TO VISIBILITY.

* - STATION DOES NOT REPORT WEATHER SUCH AS PRECIPITATION OR FOG.

+ - STATION NOT QUALITY CONTROLLED BY THE NATIONAL WEATHER SERVICE.
    USE DATA WITH CAUTION...ESPECIALLY DEWPOINT AND RELATIVE
    HUMIDITY OBSERVATIONS.

INZ001>003-010>013-019-020-281400-
NORTHWEST INDIANA

CITY           SKY/WX    TMP DP  RH WIND       PRES   REMARKS
GARY /AIRPORT/ PTCLDY    21  12  68 SE8       30.31R WCI  12
VALPARAISO     NOT AVBL

$$

LMZ046-743>745-281400-
SOUTHERN LAKE MICHIGAN

STATION/POSITION TIME  TEMP WIND        PRES
                       AIR  DIR/SP/G
                 (UTC) (F)  (DEG/KT/KT) (MB)
MICHIGAN CITY    1200   21  120/  6/  8   N/A

$$

INZ004-005-014>016-021>024-281400-
NORTH CENTRAL INDIANA

CITY           SKY/WX    TMP DP  RH WIND       PRES   REMARKS
ELKHART        CLEAR     12   7  79 CALM      30.33R
GOSHEN         PTCLDY    11   5  77 SE5       30.32R WCI   3
SOUTH BEND     PTCLDY    16  11  80 SE5       30.32R WCI   9

$$

INZ006>009-017-018-025>027-281400-
NORTHEAST INDIANA

CITY           SKY/WX    TMP DP  RH WIND       PRES   REMARKS
ANGOLA *+      CLEAR      5   1  85 CALM      30.31R
FORT WAYNE     PTCLDY     8   4  83 CALM      30.34R

$$

INZ028-029-035-036-043>045-051>053-281400-
WEST CENTRAL INDIANA

CITY           SKY/WX    TMP DP  RH WIND       PRES   REMARKS
CRAWFORDSVL +  PTCLDY    18  11  74 S5        30.32R WCI  11
GREENCASTLE +  FAIR      18  10  73 SE3       30.33R
LAFAYETTE      PTCLDY    17  14  88 CALM      30.32R
TERRE HAUTE    CLEAR     20  15  81 SE6       30.33R WCI  12

$$

INZ030>032-037>040-046>048-054>057-064-065-281400-
CENTRAL INDIANA

CITY           SKY/WX    TMP DP  RH WIND       PRES   REMARKS
COLUMBUS       CLEAR     16  12  86 E3        30.35S FOG
INDIANAPOLIS   PTCLDY    15  13  91 SE5       30.33R WCI   8
-EAGLE CREEK   PTCLDY    16  12  84 CALM      30.32R
KOKOMO *+      PTCLDY    10   7  85 SE6       30.33R WCI   1
MT COMFORT *+  PTCLDY    16  12  86 CALM      30.33R
SHELBYVILLE    PTCLDY    16  12  84 E5        30.33R FOG     WCI   9

$$

INZ033-034-041-042-049-050-058-059-281400-
EAST CENTRAL INDIANA

CITY           SKY/WX    TMP DP  RH WIND       PRES   REMARKS
MUNCIE         PTCLDY     9   5  84 CALM      30.33R FOG

$$

INZ060-061-067>069-081>083-085>088-281400-
SOUTHWEST INDIANA

CITY           SKY/WX    TMP DP  RH WIND       PRES   REMARKS
EVANSVILLE     CLEAR     29  20  69 SE3       30.34R
HUNTINGBURG *+ CLEAR     23  16  74 SE10      30.33S WCI  12

$$

INZ062-063-066-070>080-084-089>092-281400-
SOUTH CENTRAL AND SOUTHEAST INDIANA

CITY           SKY/WX    TMP DP  RH WIND       PRES   REMARKS
BLOOMINGTON    PTCLDY    17  14  88 S3        30.33R

$$



USA.gov is the U.S. government's official web portal to all federal, state and local government web resources and services.